Time,TemperatureF,DewpointF,PressureIn,WindDirection,WindDirectionDegrees,WindSpeedMPH,WindSpeedGustMPH,Humidity,HourlyPrecipIn,Conditions,Clouds,dailyrainin,SoftwareType,DateUTC
2013-07-09 00:02:00,82.9,69.8,29.78,SSW,193,2.0,12.0,66,0.00,,,0.00,meteohub,2013-07-09 05:02:00,
2013-07-09 00:07:00,82.0,69.8,29.78,South,177,7.0,9.0,66,0.00,,,0.00,meteohub,2013-07-09 05:07:00,
2013-07-09 00:17:00,82.0,70.0,29.79,SSW,198,4.0,11.0,68,0.00,,,0.00,meteohub,2013-07-09 05:17:00,
2013-07-09 00:22:00,81.0,70.0,29.79,SSW,198,0.0,11.0,68,0.00,,,0.00,meteohub,2013-07-09 05:22:00,
2013-07-09 00:27:00,81.0,70.2,29.79,SSW,194,8.0,8.0,69,0.00,,,0.00,meteohub,2013-07-09 05:27:00,
2013-07-09 00:32:00,81.0,69.8,29.80,SSW,195,4.0,11.0,69,0.00,,,0.00,meteohub,2013-07-09 05:32:00,
2013-07-09 00:37:00,81.0,69.8,29.80,South,183,4.0,11.0,70,0.00,,,0.00,meteohub,2013-07-09 05:37:00,
2013-07-09 00:42:00,80.1,70.2,29.80,SSW,200,5.0,11.0,70,0.00,,,0.00,meteohub,2013-07-09 05:42:00,
2013-07-09 00:47:00,80.1,69.8,29.80,SSW,198,0.0,8.0,71,0.00,,,0.00,meteohub,2013-07-09 05:47:00,
2013-07-09 00:52:00,80.1,69.8,29.80,South,187,0.0,8.0,71,0.00,,,0.00,meteohub,2013-07-09 05:52:00,
2013-07-09 00:57:00,80.1,69.6,29.80,South,186,0.0,8.0,71,0.00,,,0.00,meteohub,2013-07-09 05:57:00,
2013-07-09 01:02:00,79.0,69.6,29.80,South,186,3.0,6.0,72,0.00,,,0.00,meteohub,2013-07-09 06:02:00,
2013-07-09 01:07:00,79.0,69.4,29.80,South,188,0.0,5.0,72,0.00,,,0.00,meteohub,2013-07-09 06:07:00,
2013-07-09 01:12:00,79.0,69.3,29.79,South,189,0.0,5.0,73,0.00,,,0.00,meteohub,2013-07-09 06:12:00,
2013-07-09 01:17:00,79.0,69.3,29.79,South,186,5.0,5.0,73,0.00,,,0.00,meteohub,2013-07-09 06:17:00,
2013-07-09 01:22:00,78.1,69.3,29.80,South,186,4.0,5.0,73,0.00,,,0.00,meteohub,2013-07-09 06:22:00,
2013-07-09 01:27:00,78.1,68.9,29.80,South,188,3.0,5.0,73,0.00,,,0.00,meteohub,2013-07-09 06:27:00,
2013-07-09 01:32:00,78.1,68.9,29.80,SSW,194,0.0,5.0,73,0.00,,,0.00,meteohub,2013-07-09 06:32:00,
2013-07-09 01:37:00,78.1,68.9,29.80,South,191,0.0,7.0,73,0.00,,,0.00,meteohub,2013-07-09 06:37:00,
2013-07-09 01:42:00,78.1,68.9,29.80,SSW,192,1.0,7.0,72,0.00,,,0.00,meteohub,2013-07-09 06:42:00,
2013-07-09 01:47:00,78.1,68.5,29.80,SSW,198,0.0,7.0,72,0.00,,,0.00,meteohub,2013-07-09 06:47:00,
2013-07-09 01:52:00,78.1,68.7,29.80,SSW,198,4.0,8.0,72,0.00,,,0.00,meteohub,2013-07-09 06:52:00,
2013-07-09 01:57:00,78.1,68.9,29.80,SSW,198,2.0,8.0,71,0.00,,,0.00,meteohub,2013-07-09 06:57:00,
2013-07-09 02:07:00,79.0,68.9,29.81,SSW,207,0.0,7.0,71,0.00,,,0.00,meteohub,2013-07-09 07:07:00,
2013-07-09 02:12:00,79.0,68.7,29.81,SSW,208,2.0,7.0,70,0.00,,,0.00,meteohub,2013-07-09 07:12:00,
2013-07-09 02:17:00,79.0,68.9,29.82,SW,225,4.0,7.0,71,0.00,,,0.00,meteohub,2013-07-09 07:17:00,
2013-07-09 02:22:00,79.0,68.5,29.82,WSW,238,0.0,7.0,71,0.00,,,0.00,meteohub,2013-07-09 07:22:00,
2013-07-09 02:27:00,79.0,68.5,29.82,SSW,196,7.0,7.0,71,0.00,,,0.00,meteohub,2013-07-09 07:27:00,
2013-07-09 02:32:00,79.0,68.7,29.82,SW,217,9.0,9.0,70,0.00,,,0.00,meteohub,2013-07-09 07:32:00,
2013-07-09 02:37:00,80.1,68.7,29.81,SW,215,6.0,12.0,69,0.00,,,0.00,meteohub,2013-07-09 07:37:00,
2013-07-09 02:42:00,80.1,68.7,29.81,South,189,9.0,12.0,69,0.00,,,0.00,meteohub,2013-07-09 07:42:00,
2013-07-09 02:47:00,80.1,68.9,29.80,SW,221,10.0,15.0,68,0.00,,,0.00,meteohub,2013-07-09 07:47:00,
2013-07-09 02:52:00,81.0,68.9,29.80,SW,217,12.0,15.0,68,0.00,,,0.00,meteohub,2013-07-09 07:52:00,
2013-07-09 03:02:00,80.1,69.3,29.79,SSW,203,7.0,14.0,69,0.00,,,0.00,meteohub,2013-07-09 08:02:00,
2013-07-09 03:07:00,80.1,68.9,29.78,SW,214,9.0,14.0,69,0.00,,,0.00,meteohub,2013-07-09 08:07:00,
2013-07-09 03:12:00,80.1,68.9,29.78,SSW,196,5.0,11.0,70,0.00,,,0.00,meteohub,2013-07-09 08:12:00,
2013-07-09 03:17:00,80.1,69.1,29.78,SSW,205,0.0,11.0,70,0.00,,,0.00,meteohub,2013-07-09 08:17:00,
2013-07-09 03:22:00,80.1,69.4,29.78,SSW,205,4.0,11.0,70,0.00,,,0.00,meteohub,2013-07-09 08:22:00,
2013-07-09 03:32:00,79.0,69.3,29.78,South,180,1.0,8.0,71,0.00,,,0.00,meteohub,2013-07-09 08:32:00,
2013-07-09 03:37:00,79.0,69.6,29.78,South,185,1.0,8.0,72,0.00,,,0.00,meteohub,2013-07-09 08:37:00,
2013-07-09 03:42:00,79.0,69.3,29.78,SSW,203,4.0,8.0,71,0.00,,,0.00,meteohub,2013-07-09 08:42:00,
2013-07-09 03:47:00,79.0,67.6,29.78,South,191,5.0,8.0,68,0.00,,,0.00,meteohub,2013-07-09 08:47:00,
2013-07-09 03:52:00,80.1,66.7,29.77,SSW,196,0.0,11.0,65,0.00,,,0.00,meteohub,2013-07-09 08:52:00,
2013-07-09 03:57:00,80.1,66.9,29.76,SSE,159,0.0,11.0,65,0.00,,,0.00,meteohub,2013-07-09 08:57:00,
2013-07-09 04:02:00,80.1,66.7,29.74,SE,129,0.0,11.0,63,0.00,,,0.00,meteohub,2013-07-09 09:02:00,
2013-07-09 04:07:00,80.1,66.0,29.74,East,94,0.0,10.0,64,0.00,,,0.00,meteohub,2013-07-09 09:07:00,
2013-07-09 04:12:00,79.0,66.2,29.75,ESE,104,0.0,8.0,65,0.00,,,0.00,meteohub,2013-07-09 09:12:00,
2013-07-09 04:17:00,79.0,66.2,29.76,NNW,338,4.0,12.0,65,0.00,,,0.00,meteohub,2013-07-09 09:17:00,
2013-07-09 04:22:00,79.0,66.4,29.76,North,5,0.0,12.0,69,0.00,,,0.00,meteohub,2013-07-09 09:22:00,
2013-07-09 04:27:00,78.1,65.8,29.75,NE,52,0.0,11.0,67,0.00,,,0.00,meteohub,2013-07-09 09:27:00,
2013-07-09 04:32:00,78.1,64.9,29.76,SSW,211,3.0,8.0,65,0.00,,,0.00,meteohub,2013-07-09 09:32:00,
2013-07-09 04:37:00,79.0,64.0,29.75,WSW,256,5.0,11.0,62,0.00,,,0.00,meteohub,2013-07-09 09:37:00,
2013-07-09 04:42:00,79.0,63.5,29.75,SSW,206,5.0,14.0,62,0.00,,,0.00,meteohub,2013-07-09 09:42:00,
2013-07-09 04:47:00,80.1,63.5,29.74,SW,222,0.0,14.0,58,0.00,,,0.00,meteohub,2013-07-09 09:47:00,
2013-07-09 04:52:00,80.1,63.9,29.74,SW,222,0.0,11.0,58,0.00,,,0.00,meteohub,2013-07-09 09:52:00,
2013-07-09 04:57:00,80.1,63.9,29.73,SW,222,0.0,11.0,59,0.00,,,0.00,meteohub,2013-07-09 09:57:00,
2013-07-09 05:02:00,80.1,64.6,29.73,SE,133,0.0,6.0,59,0.00,,,0.00,meteohub,2013-07-09 10:02:00,
2013-07-09 05:07:00,80.1,64.2,29.74,SE,124,0.0,3.0,59,0.00,,,0.00,meteohub,2013-07-09 10:07:00,
2013-07-09 05:12:00,79.0,64.4,29.74,SE,127,0.0,3.0,61,0.00,,,0.00,meteohub,2013-07-09 10:12:00,
2013-07-09 05:17:00,79.0,64.9,29.75,SE,127,0.0,3.0,63,0.00,,,0.00,meteohub,2013-07-09 10:17:00,
2013-07-09 05:22:00,78.1,65.1,29.76,SSE,163,0.0,3.0,65,0.00,,,0.00,meteohub,2013-07-09 10:22:00,
2013-07-09 05:27:00,77.0,65.5,29.76,SSE,163,0.0,3.0,66,0.00,,,0.00,meteohub,2013-07-09 10:27:00,
2013-07-09 05:32:00,77.0,65.5,29.76,SSE,163,0.0,3.0,68,0.00,,,0.00,meteohub,2013-07-09 10:32:00,
2013-07-09 05:37:00,75.9,65.3,29.76,SSE,163,0.0,1.0,70,0.00,,,0.00,meteohub,2013-07-09 10:37:00,
2013-07-09 05:42:00,75.0,65.3,29.77,SSE,163,0.0,1.0,73,0.00,,,0.00,meteohub,2013-07-09 10:42:00,
2013-07-09 05:47:00,75.0,65.5,29.77,SSE,163,0.0,1.0,74,0.00,,,0.00,meteohub,2013-07-09 10:47:00,
2013-07-09 05:52:00,73.9,65.7,29.77,SSE,163,0.0,1.0,75,0.00,,,0.00,meteohub,2013-07-09 10:52:00,
2013-07-09 05:57:00,73.9,65.8,29.78,SSE,163,0.0,1.0,78,0.00,,,0.00,meteohub,2013-07-09 10:57:00,
2013-07-09 06:07:00,73.0,65.8,29.78,SSE,163,0.0,1.0,78,0.00,,,0.00,meteohub,2013-07-09 11:07:00,
2013-07-09 06:12:00,73.0,66.2,29.78,SSE,156,4.0,4.0,77,0.00,,,0.00,meteohub,2013-07-09 11:12:00,
2013-07-09 06:17:00,73.9,66.7,29.78,SSE,163,0.0,5.0,77,0.00,,,0.00,meteohub,2013-07-09 11:17:00,
2013-07-09 06:22:00,73.9,66.7,29.77,SSE,163,0.0,5.0,76,0.00,,,0.00,meteohub,2013-07-09 11:22:00,
2013-07-09 06:32:00,75.0,66.7,29.78,SE,137,0.0,4.0,75,0.00,,,0.00,meteohub,2013-07-09 11:32:00,
2013-07-09 06:37:00,75.9,66.9,29.78,SE,136,0.0,5.0,74,0.00,,,0.00,meteohub,2013-07-09 11:37:00,
2013-07-09 06:42:00,75.9,67.1,29.79,SE,136,0.0,5.0,76,0.00,,,0.00,meteohub,2013-07-09 11:42:00,
2013-07-09 06:47:00,75.0,67.6,29.78,SE,136,0.0,2.0,78,0.00,,,0.00,meteohub,2013-07-09 11:47:00,
2013-07-09 06:52:00,75.0,68.2,29.78,SE,136,0.0,0.0,80,0.00,,,0.00,meteohub,2013-07-09 11:52:00,
2013-07-09 06:57:00,75.0,68.9,29.79,SE,136,0.0,0.0,80,0.00,,,0.00,meteohub,2013-07-09 11:57:00,
2013-07-09 07:02:00,75.0,68.9,29.78,SE,136,0.0,0.0,81,0.00,,,0.00,meteohub,2013-07-09 12:02:00,
2013-07-09 07:07:00,73.9,68.7,29.78,SE,136,0.0,0.0,82,0.00,,,0.00,meteohub,2013-07-09 12:07:00,
2013-07-09 07:12:00,73.9,69.3,29.78,SE,136,0.0,0.0,83,0.00,,,0.00,meteohub,2013-07-09 12:12:00,
2013-07-09 07:17:00,73.9,69.4,29.78,SE,136,0.0,0.0,83,0.00,,,0.00,meteohub,2013-07-09 12:17:00,
2013-07-09 07:22:00,73.9,69.8,29.79,SE,136,0.0,0.0,84,0.00,,,0.00,meteohub,2013-07-09 12:22:00,
2013-07-09 07:27:00,73.9,69.4,29.80,SE,136,0.0,2.0,84,0.00,,,0.00,meteohub,2013-07-09 12:27:00,
2013-07-09 07:32:00,73.9,69.4,29.80,SE,136,0.0,2.0,86,0.00,,,0.00,meteohub,2013-07-09 12:32:00,
2013-07-09 07:37:00,73.9,70.5,29.80,ENE,68,0.0,2.0,86,0.00,,,0.00,meteohub,2013-07-09 12:37:00,
2013-07-09 07:42:00,73.9,70.0,29.80,ENE,69,0.0,3.0,86,0.00,,,0.00,meteohub,2013-07-09 12:42:00,
2013-07-09 07:47:00,75.0,70.2,29.80,ENE,69,0.0,3.0,86,0.00,,,0.00,meteohub,2013-07-09 12:47:00,
2013-07-09 07:52:00,75.0,70.0,29.80,NE,46,5.0,5.0,84,0.00,,,0.00,meteohub,2013-07-09 12:52:00,
2013-07-09 07:57:00,75.0,69.6,29.80,NE,51,0.0,5.0,82,0.00,,,0.00,meteohub,2013-07-09 12:57:00,
2013-07-09 08:02:00,75.9,70.9,29.80,NE,51,0.0,5.0,82,0.00,,,0.00,meteohub,2013-07-09 13:02:00,
2013-07-09 08:07:00,75.9,71.2,29.79,NE,52,0.0,5.0,82,0.00,,,0.00,meteohub,2013-07-09 13:07:00,
2013-07-09 08:12:00,75.9,71.2,29.80,NE,52,0.0,3.0,82,0.00,,,0.00,meteohub,2013-07-09 13:12:00,
2013-07-09 08:17:00,77.0,71.4,29.81,NE,52,0.0,3.0,81,0.00,,,0.00,meteohub,2013-07-09 13:17:00,
2013-07-09 08:22:00,77.0,71.2,29.81,NE,52,0.0,1.0,83,0.00,,,0.00,meteohub,2013-07-09 13:22:00,
2013-07-09 08:27:00,77.0,71.1,29.81,NE,52,0.0,1.0,80,0.00,,,0.00,meteohub,2013-07-09 13:27:00,
2013-07-09 08:32:00,78.1,71.4,29.81,NE,52,0.0,1.0,78,0.00,,,0.00,meteohub,2013-07-09 13:32:00,
2013-07-09 08:42:00,80.1,71.8,29.82,NE,52,0.0,1.0,79,0.00,,,0.00,meteohub,2013-07-09 13:42:00,
2013-07-09 08:47:00,81.0,71.1,29.83,NE,52,0.0,1.0,76,0.00,,,0.00,meteohub,2013-07-09 13:47:00,
2013-07-09 08:52:00,81.0,70.9,29.83,WNW,300,0.0,4.0,74,0.00,,,0.00,meteohub,2013-07-09 13:52:00,
2013-07-09 08:57:00,82.0,71.2,29.83,NW,324,0.0,4.0,74,0.00,,,0.00,meteohub,2013-07-09 13:57:00,
2013-07-09 09:02:00,82.0,71.8,29.83,NW,324,0.0,4.0,74,0.00,,,0.00,meteohub,2013-07-09 14:02:00,
2013-07-09 09:07:00,82.9,71.6,29.83,NW,324,0.0,3.0,74,0.00,,,0.00,meteohub,2013-07-09 14:07:00,
2013-07-09 09:12:00,82.9,71.6,29.83,NW,325,0.0,4.0,73,0.00,,,0.00,meteohub,2013-07-09 14:12:00,
2013-07-09 09:17:00,84.0,72.1,29.83,NE,34,3.0,4.0,71,0.00,,,0.00,meteohub,2013-07-09 14:17:00,
2013-07-09 09:22:00,84.0,72.9,29.83,NNE,25,0.0,4.0,68,0.00,,,0.00,meteohub,2013-07-09 14:22:00,
2013-07-09 09:32:00,84.0,72.0,29.82,NNW,348,0.0,6.0,67,0.00,,,0.00,meteohub,2013-07-09 14:32:00,
2013-07-09 09:37:00,84.0,71.6,29.82,NNW,348,0.0,6.0,68,0.00,,,0.00,meteohub,2013-07-09 14:37:00,
2013-07-09 09:42:00,84.9,71.8,29.82,NW,321,0.0,6.0,68,0.00,,,0.00,meteohub,2013-07-09 14:42:00,
2013-07-09 09:47:00,84.9,71.6,29.82,NW,321,0.0,3.0,66,0.00,,,0.00,meteohub,2013-07-09 14:47:00,
2013-07-09 09:52:00,84.9,72.1,29.82,NW,321,0.0,3.0,66,0.00,,,0.00,meteohub,2013-07-09 14:52:00,
2013-07-09 09:57:00,84.9,71.8,29.82,NW,321,0.0,2.0,66,0.00,,,0.00,meteohub,2013-07-09 14:57:00,
2013-07-09 10:02:00,84.9,72.7,29.82,NW,321,0.0,2.0,67,0.00,,,0.00,meteohub,2013-07-09 15:02:00,
2013-07-09 10:07:00,84.9,72.5,29.82,NW,310,0.0,1.0,66,0.00,,,0.00,meteohub,2013-07-09 15:07:00,
2013-07-09 10:12:00,84.9,73.2,29.82,West,275,0.0,2.0,68,0.00,,,0.00,meteohub,2013-07-09 15:12:00,
2013-07-09 10:22:00,84.9,73.8,29.83,East,97,0.0,2.0,67,0.00,,,0.00,meteohub,2013-07-09 15:22:00,
2013-07-09 10:27:00,84.9,72.7,29.83,NE,36,0.0,3.0,65,0.00,,,0.00,meteohub,2013-07-09 15:27:00,
2013-07-09 10:32:00,86.0,72.7,29.83,North,9,0.0,3.0,67,0.00,,,0.00,meteohub,2013-07-09 15:32:00,
2013-07-09 10:37:00,86.0,73.4,29.83,ENE,71,4.0,4.0,67,0.00,,,0.00,meteohub,2013-07-09 15:37:00,
2013-07-09 10:42:00,86.0,72.1,29.83,NE,55,0.0,4.0,68,0.00,,,0.00,meteohub,2013-07-09 15:42:00,
2013-07-09 10:47:00,86.0,73.0,29.82,SE,136,0.0,5.0,69,0.00,,,0.00,meteohub,2013-07-09 15:47:00,
2013-07-09 10:57:00,86.0,72.9,29.82,SSE,166,0.0,5.0,66,0.00,,,0.00,meteohub,2013-07-09 15:57:00,
2013-07-09 11:02:00,86.0,72.3,29.82,SSE,166,0.0,5.0,63,0.00,,,0.00,meteohub,2013-07-09 16:02:00,
2013-07-09 11:07:00,87.1,73.6,29.82,SSE,166,0.0,5.0,65,0.00,,,0.00,meteohub,2013-07-09 16:07:00,
2013-07-09 11:12:00,87.1,73.2,29.82,SSE,166,0.0,3.0,66,0.00,,,0.00,meteohub,2013-07-09 16:12:00,
2013-07-09 11:17:00,87.1,72.9,29.82,SE,145,0.0,5.0,66,0.00,,,0.00,meteohub,2013-07-09 16:17:00,
2013-07-09 11:22:00,87.1,73.6,29.81,SSW,200,0.0,5.0,69,0.00,,,0.00,meteohub,2013-07-09 16:22:00,
2013-07-09 11:27:00,87.1,73.6,29.81,SSW,200,0.0,5.0,66,0.00,,,0.00,meteohub,2013-07-09 16:27:00,
2013-07-09 11:32:00,87.1,73.0,29.81,SW,231,0.0,6.0,71,0.00,,,0.00,meteohub,2013-07-09 16:32:00,
2013-07-09 11:37:00,87.1,74.3,29.81,SW,231,0.0,7.0,65,0.00,,,0.00,meteohub,2013-07-09 16:37:00,
2013-07-09 11:42:00,87.1,74.7,29.81,SW,231,0.0,7.0,67,0.00,,,0.00,meteohub,2013-07-09 16:42:00,
2013-07-09 11:47:00,88.0,74.1,29.81,WSW,255,4.0,5.0,67,0.00,,,0.00,meteohub,2013-07-09 16:47:00,
2013-07-09 11:52:00,88.0,74.3,29.81,SW,221,1.0,6.0,63,0.00,,,0.00,meteohub,2013-07-09 16:52:00,
2013-07-09 11:57:00,88.0,75.2,29.80,SSW,212,2.0,6.0,68,0.00,,,0.00,meteohub,2013-07-09 16:57:00,
2013-07-09 12:02:00,88.0,74.1,29.81,WSW,246,2.0,7.0,66,0.00,,,0.00,meteohub,2013-07-09 17:02:00,
2013-07-09 12:07:00,88.0,74.1,29.81,WSW,248,0.0,7.0,66,0.00,,,0.00,meteohub,2013-07-09 17:07:00,
2013-07-09 12:12:00,88.0,73.0,29.80,WSW,250,0.0,7.0,61,0.00,,,0.00,meteohub,2013-07-09 17:12:00,
2013-07-09 12:17:00,89.1,75.2,29.81,SW,229,0.0,5.0,65,0.00,,,0.00,meteohub,2013-07-09 17:17:00,
2013-07-09 12:22:00,89.1,75.6,29.80,SSE,163,0.0,5.0,64,0.00,,,0.00,meteohub,2013-07-09 17:22:00,
2013-07-09 12:32:00,89.1,73.8,29.80,SW,232,2.0,6.0,67,0.00,,,0.00,meteohub,2013-07-09 17:32:00,
2013-07-09 12:37:00,89.1,75.2,29.80,South,190,0.0,6.0,67,0.00,,,0.00,meteohub,2013-07-09 17:37:00,
2013-07-09 12:47:00,90.0,75.7,29.80,SSE,153,0.0,7.0,66,0.00,,,0.00,meteohub,2013-07-09 17:47:00,
2013-07-09 12:52:00,90.0,74.5,29.79,SSE,166,2.0,7.0,62,0.00,,,0.00,meteohub,2013-07-09 17:52:00,
2013-07-09 12:57:00,91.0,74.7,29.79,SSE,167,0.0,6.0,66,0.00,,,0.00,meteohub,2013-07-09 17:57:00,
2013-07-09 13:07:00,91.0,73.4,29.79,SW,224,0.0,5.0,61,0.00,,,0.00,meteohub,2013-07-09 18:07:00,
2013-07-09 13:12:00,91.9,74.1,29.79,SW,232,0.0,5.0,59,0.00,,,0.00,meteohub,2013-07-09 18:12:00,
2013-07-09 13:22:00,91.0,73.6,29.79,West,274,1.0,7.0,59,0.00,,,0.00,meteohub,2013-07-09 18:22:00,
2013-07-09 13:27:00,91.0,75.0,29.78,West,275,1.0,6.0,60,0.00,,,0.00,meteohub,2013-07-09 18:27:00,
2013-07-09 13:32:00,91.9,73.9,29.79,West,269,4.0,6.0,62,0.00,,,0.00,meteohub,2013-07-09 18:32:00,
2013-07-09 13:42:00,91.9,73.6,29.79,SW,223,1.0,6.0,56,0.00,,,0.00,meteohub,2013-07-09 18:42:00,
2013-07-09 13:52:00,93.0,75.7,29.79,West,269,2.0,6.0,56,0.00,,,0.00,meteohub,2013-07-09 18:52:00,
2013-07-09 13:57:00,93.0,74.7,29.79,West,277,0.0,6.0,55,0.00,,,0.00,meteohub,2013-07-09 18:57:00,
2013-07-09 14:02:00,93.0,73.4,29.79,South,173,2.0,6.0,59,0.00,,,0.00,meteohub,2013-07-09 19:02:00,
2013-07-09 14:07:00,93.0,74.8,29.79,SSE,166,0.0,6.0,57,0.00,,,0.00,meteohub,2013-07-09 19:07:00,
2013-07-09 14:12:00,93.0,73.9,29.79,South,184,2.0,6.0,56,0.00,,,0.00,meteohub,2013-07-09 19:12:00,
2013-07-09 14:17:00,93.0,72.3,29.79,SSW,212,1.0,6.0,54,0.00,,,0.00,meteohub,2013-07-09 19:17:00,
2013-07-09 14:22:00,93.0,74.7,29.79,SSW,212,1.0,6.0,59,0.00,,,0.00,meteohub,2013-07-09 19:22:00,
2013-07-09 14:27:00,93.0,73.6,29.79,SSW,212,1.0,6.0,54,0.00,,,0.00,meteohub,2013-07-09 19:27:00,
2013-07-09 14:32:00,93.0,73.4,29.79,SSW,212,2.0,3.0,53,0.00,,,0.00,meteohub,2013-07-09 19:32:00,
2013-07-09 14:37:00,93.9,73.9,29.79,SSW,212,0.0,3.0,56,0.00,,,0.00,meteohub,2013-07-09 19:37:00,
2013-07-09 14:42:00,93.9,72.5,29.79,SSW,212,1.0,3.0,53,0.00,,,0.00,meteohub,2013-07-09 19:42:00,
2013-07-09 14:47:00,93.9,73.4,29.79,SSW,212,0.0,3.0,56,0.00,,,0.00,meteohub,2013-07-09 19:47:00,
2013-07-09 14:52:00,93.9,74.3,29.79,SSW,212,1.0,3.0,57,0.00,,,0.00,meteohub,2013-07-09 19:52:00,
2013-07-09 15:02:00,93.9,73.9,29.79,SSW,212,2.0,4.0,56,0.00,,,0.00,meteohub,2013-07-09 20:02:00,
2013-07-09 15:07:00,95.0,73.4,29.79,SSW,212,3.0,5.0,55,0.00,,,0.00,meteohub,2013-07-09 20:07:00,
2013-07-09 15:12:00,95.0,74.5,29.79,South,173,1.0,5.0,52,0.00,,,0.00,meteohub,2013-07-09 20:12:00,
2013-07-09 15:17:00,95.0,74.5,29.80,South,173,2.0,5.0,54,0.00,,,0.00,meteohub,2013-07-09 20:17:00,
2013-07-09 15:27:00,95.0,73.8,29.79,West,281,3.0,4.0,52,0.00,,,0.00,meteohub,2013-07-09 20:27:00,
2013-07-09 15:32:00,96.1,73.6,29.79,West,269,1.0,5.0,57,0.00,,,0.00,meteohub,2013-07-09 20:32:00,
2013-07-09 15:37:00,96.1,72.9,29.79,WSW,238,3.0,5.0,49,0.00,,,0.00,meteohub,2013-07-09 20:37:00,
2013-07-09 15:42:00,96.1,74.5,29.79,West,265,2.0,5.0,53,0.00,,,0.00,meteohub,2013-07-09 20:42:00,
2013-07-09 15:47:00,96.1,73.2,29.79,NW,323,1.0,6.0,51,0.00,,,0.00,meteohub,2013-07-09 20:47:00,
2013-07-09 15:52:00,96.1,72.0,29.79,NNW,340,0.0,7.0,48,0.00,,,0.00,meteohub,2013-07-09 20:52:00,
2013-07-09 16:02:00,96.1,74.1,29.79,NNE,19,3.0,7.0,50,0.00,,,0.00,meteohub,2013-07-09 21:02:00,
2013-07-09 16:07:00,95.0,70.2,29.78,North,355,0.0,6.0,49,0.00,,,0.00,meteohub,2013-07-09 21:07:00,
2013-07-09 16:12:00,96.1,70.9,29.78,North,355,0.0,6.0,53,0.00,,,0.00,meteohub,2013-07-09 21:12:00,
2013-07-09 16:17:00,96.1,71.6,29.78,North,351,2.0,6.0,54,0.00,,,0.00,meteohub,2013-07-09 21:17:00,
2013-07-09 16:22:00,96.1,72.3,29.78,NNW,340,3.0,4.0,53,0.00,,,0.00,meteohub,2013-07-09 21:22:00,
2013-07-09 16:32:00,96.1,72.5,29.78,NNW,343,2.0,5.0,57,0.00,,,0.00,meteohub,2013-07-09 21:32:00,
2013-07-09 16:37:00,97.0,72.3,29.78,NNW,347,3.0,5.0,52,0.00,,,0.00,meteohub,2013-07-09 21:37:00,
2013-07-09 16:42:00,96.1,71.8,29.77,North,349,0.0,5.0,48,0.00,,,0.00,meteohub,2013-07-09 21:42:00,
2013-07-09 16:47:00,96.1,71.6,29.77,North,349,1.0,4.0,47,0.00,,,0.00,meteohub,2013-07-09 21:47:00,
2013-07-09 16:52:00,96.1,72.5,29.77,North,5,4.0,4.0,50,0.00,,,0.00,meteohub,2013-07-09 21:52:00,
2013-07-09 16:57:00,96.1,73.6,29.77,North,5,3.0,5.0,52,0.00,,,0.00,meteohub,2013-07-09 21:57:00,
2013-07-09 17:02:00,96.1,73.9,29.77,NNE,22,0.0,5.0,51,0.00,,,0.00,meteohub,2013-07-09 22:02:00,
2013-07-09 17:07:00,95.0,73.9,29.77,NNE,30,2.0,5.0,54,0.00,,,0.00,meteohub,2013-07-09 22:07:00,
2013-07-09 17:12:00,95.0,73.0,29.77,NNE,30,2.0,5.0,53,0.00,,,0.00,meteohub,2013-07-09 22:12:00,
2013-07-09 17:22:00,95.0,73.0,29.76,ENE,78,0.0,6.0,52,0.00,,,0.00,meteohub,2013-07-09 22:22:00,
2013-07-09 17:27:00,95.0,74.8,29.76,ENE,76,3.0,6.0,53,0.00,,,0.00,meteohub,2013-07-09 22:27:00,
2013-07-09 17:32:00,95.0,74.8,29.76,ENE,61,4.0,6.0,52,0.00,,,0.00,meteohub,2013-07-09 22:32:00,
2013-07-09 17:37:00,93.9,75.2,29.76,NE,40,2.0,6.0,54,0.00,,,0.00,meteohub,2013-07-09 22:37:00,
2013-07-09 17:42:00,93.9,75.6,29.76,NE,34,2.0,6.0,54,0.00,,,0.00,meteohub,2013-07-09 22:42:00,
2013-07-09 17:47:00,93.9,75.0,29.76,NNE,19,2.0,6.0,55,0.00,,,0.00,meteohub,2013-07-09 22:47:00,
2013-07-09 17:52:00,93.9,73.2,29.76,North,355,0.0,6.0,56,0.00,,,0.00,meteohub,2013-07-09 22:52:00,
2013-07-09 17:57:00,93.9,73.9,29.76,NW,311,1.0,5.0,59,0.00,,,0.00,meteohub,2013-07-09 22:57:00,
2013-07-09 18:02:00,93.9,73.8,29.76,NE,50,1.0,5.0,57,0.00,,,0.00,meteohub,2013-07-09 23:02:00,
2013-07-09 18:07:00,93.9,74.8,29.77,NW,312,2.0,6.0,60,0.00,,,0.00,meteohub,2013-07-09 23:07:00,
2013-07-09 18:12:00,93.9,76.3,29.76,NNW,328,4.0,6.0,57,0.00,,,0.00,meteohub,2013-07-09 23:12:00,
2013-07-09 18:22:00,93.0,75.2,29.76,NW,319,0.0,8.0,61,0.00,,,0.00,meteohub,2013-07-09 23:22:00,
2013-07-09 18:32:00,93.0,75.2,29.76,NNE,19,1.0,9.0,58,0.00,,,0.00,meteohub,2013-07-09 23:32:00,
2013-07-09 18:42:00,91.9,74.5,29.77,NNE,26,5.0,9.0,59,0.00,,,0.00,meteohub,2013-07-09 23:42:00,
2013-07-09 18:47:00,91.9,74.7,29.77,NNE,27,0.0,7.0,58,0.00,,,0.00,meteohub,2013-07-09 23:47:00,
2013-07-09 18:52:00,91.9,73.9,29.77,NNE,17,1.0,7.0,58,0.00,,,0.00,meteohub,2013-07-09 23:52:00,
2013-07-09 18:57:00,91.0,74.8,29.77,NE,40,3.0,9.0,58,0.00,,,0.00,meteohub,2013-07-09 23:57:00,
2013-07-09 19:02:00,91.0,73.9,29.77,NNE,28,3.0,9.0,60,0.00,,,0.00,meteohub,2013-07-10 00:02:00,
2013-07-09 19:12:00,90.0,75.0,29.77,NE,44,0.0,8.0,61,0.00,,,0.00,meteohub,2013-07-10 00:12:00,
2013-07-09 19:17:00,89.1,74.3,29.78,NNE,30,0.0,6.0,62,0.00,,,0.00,meteohub,2013-07-10 00:17:00,
2013-07-09 19:22:00,89.1,74.1,29.77,NE,40,4.0,7.0,63,0.00,,,0.00,meteohub,2013-07-10 00:22:00,
2013-07-09 19:27:00,88.0,74.5,29.78,NE,40,0.0,7.0,66,0.00,,,0.00,meteohub,2013-07-10 00:27:00,
2013-07-09 19:32:00,87.1,74.5,29.78,NE,38,0.0,7.0,67,0.00,,,0.00,meteohub,2013-07-10 00:32:00,
2013-07-09 19:37:00,87.1,73.9,29.78,NNE,30,0.0,4.0,71,0.00,,,0.00,meteohub,2013-07-10 00:37:00,
2013-07-09 19:47:00,84.9,74.1,29.78,NNE,30,0.0,4.0,73,0.00,,,0.00,meteohub,2013-07-10 00:47:00,
2013-07-09 19:52:00,84.9,74.8,29.78,NNE,30,0.0,3.0,76,0.00,,,0.00,meteohub,2013-07-10 00:52:00,
2013-07-09 20:02:00,84.0,74.7,29.78,NNE,30,0.0,1.0,77,0.00,,,0.00,meteohub,2013-07-10 01:02:00,
2013-07-09 20:12:00,82.9,74.5,29.79,NNE,30,0.0,1.0,78,0.00,,,0.00,meteohub,2013-07-10 01:12:00,
2013-07-09 20:17:00,82.9,74.3,29.79,NNE,30,0.0,2.0,79,0.00,,,0.00,meteohub,2013-07-10 01:17:00,
2013-07-09 20:22:00,82.9,74.3,29.79,NNE,30,0.0,3.0,79,0.00,,,0.00,meteohub,2013-07-10 01:22:00,
2013-07-09 21:17:00,81.0,74.8,29.81,NE,41,8.0,8.0,81,0.00,,,0.00,meteohub,2013-07-10 02:17:00,
2013-07-09 21:22:00,81.0,75.2,29.81,NE,34,4.0,9.0,81,0.00,,,0.00,meteohub,2013-07-10 02:22:00,
2013-07-09 21:27:00,81.0,75.0,29.81,NNE,26,3.0,9.0,81,0.00,,,0.00,meteohub,2013-07-10 02:27:00,
2013-07-09 21:32:00,81.0,74.7,29.81,NNE,32,6.0,9.0,80,0.00,,,0.00,meteohub,2013-07-10 02:32:00,
2013-07-09 21:37:00,82.0,74.5,29.81,NNE,17,6.0,10.0,79,0.00,,,0.00,meteohub,2013-07-10 02:37:00,
2013-07-09 21:42:00,82.0,74.5,29.81,NE,38,1.0,11.0,78,0.00,,,0.00,meteohub,2013-07-10 02:42:00,
2013-07-09 21:47:00,82.0,74.3,29.81,NE,43,2.0,11.0,77,0.00,,,0.00,meteohub,2013-07-10 02:47:00,
2013-07-09 21:52:00,82.0,73.9,29.80,NE,34,5.0,11.0,76,0.00,,,0.00,meteohub,2013-07-10 02:52:00,
2013-07-09 21:57:00,82.0,74.3,29.81,NE,38,5.0,11.0,76,0.00,,,0.00,meteohub,2013-07-10 02:57:00,
2013-07-09 22:02:00,82.0,74.1,29.81,NNE,28,3.0,11.0,77,0.00,,,0.00,meteohub,2013-07-10 03:02:00,
2013-07-09 22:07:00,82.0,74.1,29.81,North,11,5.0,11.0,77,0.00,,,0.00,meteohub,2013-07-10 03:07:00,
2013-07-09 22:17:00,82.0,73.9,29.83,NNE,28,0.0,11.0,78,0.00,,,0.00,meteohub,2013-07-10 03:17:00,
2013-07-09 22:22:00,81.0,73.9,29.83,NNE,14,0.0,11.0,77,0.00,,,0.00,meteohub,2013-07-10 03:22:00,
2013-07-09 22:27:00,81.0,73.2,29.83,NE,34,0.0,11.0,77,0.00,,,0.00,meteohub,2013-07-10 03:27:00,
2013-07-09 22:32:00,81.0,73.0,29.83,NNE,18,4.0,11.0,77,0.00,,,0.00,meteohub,2013-07-10 03:32:00,
2013-07-09 22:42:00,81.0,72.7,29.84,NNW,340,0.0,9.0,77,0.00,,,0.00,meteohub,2013-07-10 03:42:00,
2013-07-09 22:47:00,80.1,72.7,29.84,North,5,2.0,7.0,77,0.00,,,0.00,meteohub,2013-07-10 03:47:00,
2013-07-09 22:52:00,80.1,72.3,29.84,NE,34,4.0,7.0,77,0.00,,,0.00,meteohub,2013-07-10 03:52:00,
2013-07-09 22:57:00,80.1,72.3,29.84,NE,37,4.0,9.0,76,0.00,,,0.00,meteohub,2013-07-10 03:57:00,
2013-07-09 23:02:00,80.1,72.1,29.84,North,0,0.0,9.0,77,0.00,,,0.00,meteohub,2013-07-10 04:02:00,
2013-07-09 23:07:00,80.1,72.0,29.84,NE,45,0.0,8.0,77,0.00,,,0.00,meteohub,2013-07-10 04:07:00,
2013-07-09 23:12:00,80.1,71.8,29.83,NE,43,2.0,8.0,77,0.00,,,0.00,meteohub,2013-07-10 04:12:00,
2013-07-09 23:17:00,79.0,72.0,29.84,NNE,25,1.0,8.0,77,0.00,,,0.00,meteohub,2013-07-10 04:17:00,
2013-07-09 23:22:00,79.0,71.8,29.84,NE,34,4.0,10.0,77,0.00,,,0.00,meteohub,2013-07-10 04:22:00,
2013-07-09 23:27:00,79.0,71.6,29.84,NNE,24,0.0,10.0,78,0.00,,,0.00,meteohub,2013-07-10 04:27:00,
2013-07-09 23:32:00,79.0,71.4,29.84,NE,38,3.0,10.0,78,0.00,,,0.00,meteohub,2013-07-10 04:32:00,
2013-07-09 23:37:00,79.0,71.6,29.85,NNE,32,0.0,9.0,78,0.00,,,0.00,meteohub,2013-07-10 04:37:00,
2013-07-09 23:42:00,79.0,71.4,29.85,NNE,29,0.0,8.0,78,0.00,,,0.00,meteohub,2013-07-10 04:42:00,
2013-07-09 23:47:00,78.1,71.2,29.85,NNE,28,3.0,8.0,79,0.00,,,0.00,meteohub,2013-07-10 04:47:00,
2013-07-09 23:52:00,78.1,71.4,29.85,NNE,28,0.0,7.0,79,0.00,,,0.00,meteohub,2013-07-10 04:52:00,
2013-07-09 23:57:00,78.1,71.2,29.85,NNE,32,3.0,7.0,79,0.00,,,0.00,meteohub,2013-07-10 04:57:00,